Temperature
2 2 2 2 2 2 1 1 1 2 3 4 4 3 3 4 4 4 4 4 4 4 4 4 4 4 5 5 5 5 5 5 6 6 6 6 7 7 7 8 8 8 8 9
1 2 2 2 2 2 2 2 2 2 3 4 4 3 3 3 3 3 4 4 4 4 4 4 4 4 4 4 4 4 5 5 5 5 6 6 6 7 7 8 8 8 8 8
1 1 1 1 2 2 2 2 2 2 3 3 2 2 3 3 3 3 3 3 3 3 3 3 4 4 4 4 4 4 4 4 5 5 5 6 6 6 7 7 7 8 8 8
0 -0 0 2 2 2 2 3 2 2 2 2 2 3 3 3 3 3 3 3 3 3 3 3 3 3 3 4 4 4 4 4 4 5 5 6 6 6 7 7 7 8 8 8
0 -0 0 1 2 2 1 1 2 2 2 2 2 2 2 3 3 3 2 2 3 3 3 3 3 3 3 3 4 4 4 4 4 4 5 5 5 6 6 7 7 7 8 8
0 -0 0 2 2 2 2 1 2 1 1 1 1 -0 1 3 2 2 2 2 2 2 2 2 3 3 3 3 3 3 3 4 4 4 4 5 5 6 6 6 7 7 7 7
0 0 1 1 2 2 1 1 2 2 1 1 0 1 2 2 2 2 2 2 2 2 2 2 2 2 2 2 2 3 3 3 3 4 4 5 5 5 6 6 6 7 7 7
-1 -0 0 1 1 1 1 2 2 2 2 2 2 2 2 2 1 1 1 1 1 1 1 1 1 1 2 2 2 2 2 3 3 3 4 4 5 5 5 6 6 6 7 7
-0 1 1 2 2 2 2 2 2 2 2 1 1 1 1 1 1 1 1 1 0 0 1 1 1 1 1 1 2 2 2 2 3 3 3 4 4 5 5 5 5 6 6 7
-1 -1 0 1 2 2 2 2 2 1 1 1 0 0 0 0 0 0 0 -0 -0 -0 -0 0 0 1 1 1 1 1 2 2 2 2 3 3 4 4 4 5 5 5 6 6
-1 -1 -0 1 1 1 1 1 1 1 0 0 -0 -0 -0 -1 -1 -1 -1 -1 -1 -1 -1 -1 -0 -0 0 0 0 1 1 1 2 2 2 3 3 4 4 5 5 5 6 6
-1 -0 -1 -0 1 1 1 0 0 -0 -0 -0 -1 -1 -1 -1 -1 -1 -1 -1 -1 -1 -1 -1 -1 -1 -0 -0 -0 -0 0 1 1 1 2 2 3 3 4 4 5 5 6 6
1 1 1 0 0 0 -0 -0 -0 -1 -1 -1 -1 -1 -2 -2 -2 -2 -2 -2 -2 -2 -2 -2 -2 -1 -1 -1 -1 -1 -0 -0 0 1 1 1 2 3 3 4 4 5 5 5
0 -0 -1 -1 -1 -1 -1 -1 -1 -1 -2 -2 -2 -2 -2 -3 -3 -3 -3 -3 -3 -3 -3 -2 -2 -2 -2 -2 -1 -1 -1 -1 -0 0 1 1 2 2 3 3 4 4 5 5
-1 -1 -1 -1 -1 -2 -2 -2 -2 -2 -2 -2 -3 -3 -3 -4 -4 -4 -4 -4 -4 -3 -3 -3 -3 -2 -2 -2 -2 -2 -1 -1 -1 -0 0 1 1 2 2 2 3 4 4 4
-2 -2 -2 -2 -2 -2 -3 -3 -3 -3 -3 -3 -4 -4 -4 -4 -5 -5 -4 -4 -4 -4 -4 -4 -4 -3 -3 -3 -3 -2 -2 -1 -1 -1 -0 0 1 1 2 2 3 3 4 4
-3 -3 -3 -4 -3 -3 -4 -4 -4 -4 -4 -4 -5 -5 -5 -5 -5 -5 -5 -5 -5 -5 -5 -4 -4 -4 -3 -3 -3 -3 -2 -2 -2 -1 -1 0 1 1 1 2 2 3 3 4
-4 -4 -4 -4 -5 -5 -5 -5 -5 -5 -5 -5 -5 -6 -6 -6 -6 -6 -5 -5 -5 -5 -5 -5 -4 -4 -4 -4 -4 -3 -3 -2 -2 -2 -1 -0 0 1 1 2 2 2 3 3
-4 -5 -5 -5 -5 -5 -5 -5 -6 -6 -6 -6 -6 -6 -6 -6 -6 -6 -6 -6 -6 -6 -5 -5 -5 -5 -4 -4 -4 -3 -3 -3 -2 -2 -1 -1 -0 0 1 1 2 2 2 3
-5 -5 -5 -5 -6 -6 -6 -6 -6 -6 -6 -7 -7 -7 -7 -7 -7 -6 -6 -6 -6 -6 -5 -5 -5 -5 -4 -4 -4 -4 -3 -3 -3 -2 -1 -1 -0 0 1 1 1 1 2 2
-6 -6 -6 -6 -6 -6 -6 -6 -7 -7 -7 -7 -7 -7 -7 -7 -7 -7 -7 -6 -6 -6 -6 -6 -6 -5 -5 -4 -4 -4 -4 -3 -3 -2 -2 -1 -1 -0 0 1 1 1 1 2
-7 -7 -7 -7 -7 -7 -7 -7 -7 -7 -7 -7 -7 -7 -8 -7 -7 -7 -7 -7 -6 -6 -6 -6 -6 -5 -5 -5 -5 -4 -4 -3 -3 -2 -2 -2 -1 -0 0 1 1 1 1 2
-7 -7 -7 -7 -7 -7 -7 -7 -7 -7 -7 -7 -8 -8 -8 -8 -8 -8 -7 -6 -6 -6 -6 -6 -6 -5 -5 -5 -4 -4 -4 -3 -3 -2 -2 -2 -1 -0 0 0 1 1 1 1
-7 -7 -7 -7 -7 -7 -7 -7 -8 -8 -8 -8 -8 -8 -8 -8 -7 -7 -7 -7 -6 -6 -6 -6 -6 -5 -5 -5 -4 -4 -3 -3 -3 -2 -2 -1 -1 -0 -0 0 0 1 1 1
-8 -8 -8 -8 -8 -8 -8 -8 -8 -8 -8 -8 -8 -8 -8 -8 -8 -7 -7 -7 -6 -6 -6 -5 -5 -5 -5 -5 -4 -4 -3 -3 -2 -2 -1 -1 -1 -1 -0 -0 0 0 1 1
-8 -8 -8 -8 -9 -9 -9 -9 -9 -9 -9 -8 -8 -8 -8 -8 -7 -7 -7 -6 -6 -6 -6 -5 -5 -5 -5 -4 -4 -4 -3 -3 -2 -2 -2 -1 -1 -1 -1 -0 0 0 0 1
-9 -9 -9 -9 -9 -9 -9 -9 -9 -9 -9 -9 -9 -8 -8 -8 -7 -7 -7 -6 -6 -6 -6 -5 -5 -5 -4 -4 -4 -4 -3 -3 -3 -2 -2 -1 -1 -1 -1 -0 -0 0 0 1
Wind_Speed
16 15 10 14 16 13 15 16 16 20 22 24 20 16 13 11 11 10 9 9 9 8 8 8 8 7 7 6 6 6 6 6 6 5 5 5 5 6 6 8 9 10 10 11
13 13 14 20 22 21 21 19 22 24 26 23 19 13 12 11 10 9 9 9 9 9 9 8 8 7 7 7 7 6 6 6 6 5 5 5 5 6 6 7 8 9 10 10
10 7 7 15 16 18 12 12 12 19 21 16 12 12 11 10 9 8 9 9 9 9 8 8 8 7 7 7 7 6 6 6 5 5 5 5 6 5 6 7 7 9 11 11
6 3 14 11 5 9 13 16 16 15 13 10 11 11 9 6 6 7 8 9 9 9 9 8 7 7 7 7 6 6 5 5 6 6 5 5 5 5 5 6 7 8 9 10
5 8 12 10 6 6 8 11 11 12 11 9 7 5 6 4 4 6 7 8 8 8 8 8 8 8 7 7 7 6 6 6 5 5 5 4 5 6 6 5 6 7 8 8
7 7 9 8 4 3 1 8 7 6 7 6 2 3 7 6 6 7 8 7 7 7 7 8 8 7 7 7 6 6 7 7 6 5 5 5 6 6 5 4 5 6 6 7
13 11 10 8 4 3 4 8 4 4 5 5 5 8 7 7 7 7 7 8 7 7 7 8 8 7 7 6 6 7 7 6 5 5 5 5 5 5 4 4 4 5 6 6
8 10 11 5 5 7 8 4 4 5 6 6 8 8 8 7 8 8 8 8 7 7 8 8 7 7 8 7 7 7 6 6 6 5 5 4 4 4 3 4 4 5 5 5
10 11 6 5 8 6 4 6 6 6 7 7 7 8 8 8 8 8 8 8 7 7 9 9 7 7 8 8 7 7 6 6 6 5 5 4 4 4 3 4 4 4 5 5
8 10 9 7 7 6 6 7 7 7 7 7 8 8 9 9 9 8 8 8 7 8 9 9 9 8 8 8 7 6 6 6 5 5 5 4 4 4 3 4 4 4 5 5
10 9 7 8 8 8 8 7 7 7 7 8 9 9 9 9 9 9 9 8 8 8 9 10 9 9 8 7 6 6 6 6 5 4 4 4 4 4 4 5 6 6 5 5
11 8 7 7 6 7 8 8 9 9 9 8 8 9 9 9 9 8 8 8 8 9 10 10 9 10 8 7 6 6 6 6 5 4 4 4 4 4 5 5 5 7 7 7
11 8 8 8 7 6 7 8 8 8 8 8 8 8 8 8 8 8 8 9 9 10 10 10 10 10 9 7 7 7 7 6 5 5 4 4 4 3 3 2 1 4 7 7
8 7 7 7 7 7 7 7 6 6 7 7 7 7 7 8 8 9 9 9 9 10 10 10 10 10 9 7 7 7 7 7 7 5 4 4 4 4 3 2 2 1 3 6
7 6 8 7 6 6 5 5 5 6 6 7 6 7 7 8 10 10 10 9 9 9 10 10 11 11 9 7 7 7 7 6 5 5 5 4 4 4 3 3 3 3 2 3
5 5 5 5 6 6 5 5 6 8 7 7 7 8 8 9 10 11 10 8 9 11 11 11 11 10 8 8 8 7 6 9 8 5 4 4 3 3 3 4 4 4 4 4
4 5 4 5 6 7 6 6 7 7 7 8 9 9 9 9 10 10 10 9 10 11 11 11 12 10 8 8 7 6 6 7 8 6 4 4 4 4 4 4 4 4 4 5
4 5 5 5 6 7 7 7 7 7 8 9 9 9 9 10 11 12 11 10 11 11 10 10 10 10 8 8 7 6 6 6 5 5 4 4 4 4 4 4 5 5 4 4
3 4 4 5 5 5 6 7 7 7 8 8 9 9 10 10 11 11 11 11 11 12 10 9 13 11 9 9 9 6 6 6 5 5 4 5 5 4 4 4 4 5 5 4
4 4 4 5 5 5 6 6 7 7 8 8 9 10 11 11 10 11 11 11 10 9 10 11 10 9 8 8 9 5 5 5 6 5 4 4 4 4 4 4 4 4 5 5
5 5 5 5 5 6 6 6 6 8 9 8 9 10 11 11 11 10 10 11 10 10 11 14 9 7 7 7 9 5 5 5 5 5 5 4 4 4 4 4 4 4 5 5
5 5 5 5 6 6 6 6 7 8 9 9 10 10 10 11 11 10 10 10 11 13 10 8 7 9 9 9 5 5 5 5 5 4 5 5 4 4 4 4 4 4 4 5
5 5 5 5 6 7 8 7 7 8 9 9 10 10 10 10 9 9 10 8 8 13 10 7 9 12 11 7 5 5 5 5 5 4 4 4 4 4 4 4 4 5 5 6
4 5 5 5 5 6 7 8 8 8 8 9 9 9 9 9 8 7 8 13 14 14 8 9 12 11 9 4 4 4 4 4 4 4 4 4 4 4 5 5 4 5 6 7
4 5 5 5 5 5 7 8 8 8 8 7 9 9 8 7 8 9 9 9 12 12 7 8 9 8 4 3 3 3 4 4 4 4 4 4 5 5 5 5 5 6 6 7
4 4 4 5 5 5 5 6 6 7 7 8 8 8 8 7 8 8 7 8 9 9 6 4 3 3 1 1 2 2 2 3 3 3 4 5 5 5 5 6 6 6 6 7
4 4 4 5 5 5 5 5 6 7 7 8 9 9 8 8 8 7 8 7 6 5 4 3 2 1 0 1 1 1 2 2 3 4 4 5 5 5 6 6 6 6 6 8
Wind_Direction
252 259 255 255 257 243 236 237 247 262 267 274 280 283 284 285 288 290 295 302 303 301 300 302 305 308 304 297 295 295 290 278 273 271 264 267 259 243 237 221 217 206 199 201
262 253 252 263 262 255 251 248 249 261 269 271 277 280 282 282 282 286 294 301 304 304 303 304 304 304 305 303 296 293 285 272 269 275 276 269 268 258 236 218 216 207 200 198
264 268 275 262 251 246 240 230 235 251 260 273 279 279 279 278 280 284 293 301 305 303 294 294 296 296 298 295 295 291 281 275 266 267 273 275 276 272 241 223 213 208 200 197
263 264 252 252 231 230 243 249 243 248 261 267 268 277 277 269 275 289 298 302 302 302 300 297 295 298 297 299 297 292 290 284 275 268 271 275 274 273 258 233 211 206 204 198
234 249 266 277 255 215 225 256 246 247 259 268 278 301 294 282 285 281 288 291 293 293 292 296 300 302 304 307 303 302 299 295 288 273 268 274 273 270 262 243 216 207 206 201
229 240 253 256 250 220 201 270 258 231 249 264 273 287 279 292 296 296 299 301 302 306 307 306 304 306 306 304 303 304 300 296 290 283 265 261 263 263 259 234 223 212 210 206
234 244 260 253 235 141 210 255 254 219 236 243 227 235 261 283 289 290 294 298 305 308 308 302 302 307 307 305 299 297 300 297 291 280 272 262 260 259 255 235 228 218 208 204
215 234 251 218 165 197 230 249 241 236 237 242 247 258 269 276 284 293 300 304 307 309 306 305 305 304 301 297 295 298 298 297 296 290 286 284 264 261 251 228 223 214 202 198
207 228 244 191 205 229 229 239 244 242 247 248 258 265 271 274 280 287 291 294 297 299 303 304 304 298 292 293 299 302 299 297 296 295 288 283 265 255 245 222 212 213 196 195
240 254 254 247 245 251 243 241 250 250 254 252 254 262 268 274 280 284 287 290 292 297 299 301 302 298 290 293 300 301 296 292 291 286 287 285 278 252 235 221 213 211 201 195
247 260 273 260 246 250 253 252 254 256 252 250 255 263 265 272 275 279 285 288 290 290 290 293 298 298 295 292 296 296 290 286 290 285 277 280 277 264 243 234 218 211 209 198
244 237 230 246 244 244 248 255 257 261 265 260 255 262 267 270 272 276 282 287 290 291 291 292 295 296 296 290 285 285 288 287 285 287 283 282 280 287 266 240 224 217 215 204
244 251 245 254 258 254 258 264 263 259 257 265 266 261 265 271 275 277 282 286 288 290 292 293 294 294 295 290 285 279 278 279 278 278 276 273 272 267 276 307 246 207 203 198
250 257 262 261 264 271 267 266 265 267 265 266 268 271 274 279 283 283 283 284 286 289 291 293 293 292 294 291 285 283 280 274 271 268 265 263 259 258 241 219 226 236 197 185
259 249 251 267 273 277 275 273 277 280 280 281 280 281 283 284 285 286 287 287 289 290 291 292 292 293 297 290 283 279 277 275 270 268 264 258 252 251 232 208 208 202 174 164
268 266 259 263 273 283 287 282 278 280 282 284 286 286 285 284 285 287 287 287 288 289 290 290 288 290 292 288 285 280 273 273 270 265 259 255 245 239 222 203 199 191 189 175
262 270 274 283 284 285 283 280 278 281 285 287 287 290 291 292 292 292 291 288 283 282 283 282 284 286 285 280 277 276 275 275 270 263 252 245 238 233 221 207 197 193 193 180
245 250 256 263 275 284 289 290 289 289 289 289 293 294 293 291 290 291 292 293 291 287 282 278 280 284 280 276 274 270 268 267 259 250 247 238 236 225 213 206 196 188 177 161
291 280 283 282 282 282 284 290 293 294 295 297 296 292 289 287 287 289 292 291 289 289 288 284 287 287 280 272 272 263 259 258 255 250 241 236 234 218 209 203 194 181 168 162
316 307 302 299 297 293 294 297 299 298 297 297 295 294 292 290 290 291 290 284 277 276 283 286 286 280 276 270 270 260 251 246 242 237 233 228 217 211 207 193 182 177 170 165
315 315 312 308 306 305 301 300 301 299 300 298 295 293 293 293 292 290 288 287 285 282 283 285 283 278 274 269 267 254 244 239 234 226 223 220 211 203 192 182 180 172 166 159
308 307 306 308 309 309 309 306 301 300 301 300 296 293 294 296 296 292 279 274 283 290 291 282 278 276 274 272 257 243 237 229 225 216 211 209 206 196 186 178 172 160 152 150
299 299 300 302 303 304 306 306 303 302 300 300 298 297 295 293 291 290 292 287 288 291 292 281 280 280 278 269 246 230 223 219 214 208 204 203 198 186 175 166 162 154 150 148
303 304 304 305 308 310 311 312 311 307 303 300 299 298 298 299 296 287 283 294 301 298 292 284 284 280 276 259 233 217 210 206 201 198 195 188 176 166 160 156 153 147 145 145
306 305 309 315 317 310 306 311 313 312 312 311 308 306 302 294 292 298 299 299 304 305 299 291 287 282 272 247 222 208 198 193 185 179 176 168 159 154 153 151 146 143 143 144
308 307 302 297 295 299 306 311 312 313 317 316 316 315 314 310 304 303 305 309 309 312 314 311 305 294 262 228 205 190 178 172 166 160 152 149 146 145 143 138 135 140 142 142
314 313 314 315 314 312 311 310 310 312 314 314 314 316 318 319 318 318 319 321 323 328 334 337 338 346 357 169 160 150 142 139 139 138 137 136 136 137 139 138 138 138 142 143
Height
1450 1446 1448 1446 1444 1444 1444 1439 1437 1421 1415 1405 1402 1401 1398 1395 1392 1389 1386 1383 1379 1376 1373 1370 1367 1364 1362 1360 1358 1357 1355 1354 1353 1353 1353 1353 1353 1355 1357 1359 1362 1365 1369 1373
1445 1440 1442 1437 1430 1429 1427 1425 1421 1415 1407 1399 1397 1396 1393 1390 1387 1385 1382 1379 1375 1373 1370 1367 1364 1361 1359 1356 1355 1353 1352 1350 1350 1350 1349 1350 1350 1351 1353 1355 1358 1361 1365 1368
1440 1437 1438 1429 1415 1414 1414 1411 1411 1407 1398 1393 1393 1390 1388 1385 1383 1381 1378 1375 1372 1370 1367 1364 1361 1358 1355 1353 1351 1350 1348 1347 1347 1346 1346 1345 1346 1347 1348 1350 1353 1356 1360 1363
1438 1441 1434 1409 1404 1404 1403 1400 1399 1395 1392 1390 1389 1386 1383 1382 1380 1377 1375 1372 1368 1365 1362 1360 1358 1355 1352 1350 1348 1346 1344 1343 1343 1342 1342 1342 1342 1343 1343 1345 1348 1352 1355 1358
1435 1433 1419 1406 1400 1399 1400 1395 1390 1389 1387 1386 1384 1382 1380 1378 1377 1374 1372 1369 1365 1362 1359 1356 1354 1351 1348 1345 1344 1342 1340 1339 1338 1338 1338 1338 1339 1339 1340 1342 1344 1347 1350 1353
1427 1426 1416 1400 1394 1392 1395 1395 1385 1385 1384 1383 1383 1385 1379 1376 1374 1371 1369 1366 1363 1359 1356 1353 1350 1348 1345 1342 1339 1337 1336 1335 1335 1335 1335 1335 1335 1336 1337 1338 1340 1343 1346 1349
1418 1416 1404 1393 1391 1392 1399 1392 1382 1381 1381 1381 1380 1379 1376 1373 1371 1368 1366 1363 1360 1357 1353 1351 1348 1344 1341 1339 1336 1335 1333 1332 1332 1332 1331 1331 1332 1333 1333 1334 1336 1338 1342 1345
1414 1411 1400 1386 1388 1389 1385 1380 1379 1378 1377 1377 1375 1373 1371 1369 1367 1364 1362 1359 1356 1353 1350 1347 1345 1341 1338 1336 1334 1332 1330 1329 1328 1328 1327 1328 1328 1329 1330 1332 1333 1335 1338 1341
1397 1390 1381 1380 1379 1378 1378 1377 1375 1374 1373 1373 1371 1369 1367 1365 1362 1360 1357 1355 1352 1349 1346 1343 1341 1338 1335 1332 1331 1329 1327 1326 1325 1325 1324 1325 1325 1326 1327 1329 1330 1332 1335 1338
1388 1381 1377 1376 1374 1374 1374 1373 1371 1370 1369 1368 1366 1364 1362 1360 1358 1355 1353 1350 1348 1345 1341 1339 1337 1334 1332 1329 1327 1325 1323 1322 1322 1322 1321 1321 1322 1323 1323 1325 1327 1329 1332 1334
1380 1375 1373 1370 1370 1369 1369 1368 1367 1365 1364 1363 1361 1359 1357 1355 1353 1350 1348 1345 1343 1340 1336 1334 1331 1329 1328 1326 1324 1322 1320 1319 1318 1318 1318 1318 1318 1319 1320 1322 1324 1326 1328 1331
1371 1368 1368 1365 1364 1364 1363 1362 1361 1360 1358 1357 1356 1354 1352 1350 1347 1345 1342 1340 1337 1334 1331 1328 1326 1324 1322 1321 1320 1318 1316 1314 1314 1314 1314 1314 1314 1316 1317 1319 1321 1323 1325 1328
1362 1361 1361 1360 1359 1359 1358 1356 1355 1354 1352 1351 1349 1348 1346 1344 1341 1339 1336 1334 1331 1328 1326 1323 1320 1318 1317 1316 1315 1313 1311 1311 1310 1310 1310 1310 1311 1312 1313 1315 1317 1320 1322 1326
1357 1357 1356 1355 1354 1353 1352 1351 1350 1349 1347 1346 1344 1342 1340 1337 1335 1332 1330 1328 1325 1322 1319 1317 1314 1312 1311 1310 1309 1308 1307 1306 1306 1306 1306 1307 1307 1309 1310 1311 1313 1316 1320 1323
1352 1352 1351 1350 1349 1348 1347 1346 1344 1342 1341 1340 1338 1336 1333 1331 1328 1326 1323 1321 1319 1316 1313 1311 1308 1306 1306 1305 1303 1303 1302 1301 1301 1301 1302 1302 1304 1306 1307 1309 1311 1313 1317 1320
1347 1347 1346 1345 1344 1343 1342 1340 1339 1337 1336 1334 1332 1330 1327 1325 1322 1319 1317 1315 1312 1309 1307 1304 1302 1301 1300 1299 1298 1297 1297 1297 1297 1297 1298 1299 1300 1302 1304 1306 1308 1311 1314 1316
1344 1342 1341 1340 1339 1338 1337 1336 1334 1332 1330 1328 1326 1324 1321 1318 1315 1312 1310 1308 1305 1302 1300 1298 1295 1294 1294 1294 1293 1292 1292 1292 1292 1293 1293 1295 1297 1299 1300 1302 1305 1308 1311 1314
1340 1339 1338 1337 1335 1334 1332 1331 1329 1327 1325 1323 1320 1318 1315 1312 1309 1305 1303 1300 1298 1295 1293 1292 1290 1288 1288 1287 1287 1287 1287 1287 1287 1288 1290 1291 1293 1295 1297 1299 1302 1305 1308 1311
1336 1335 1334 1333 1332 1330 1328 1326 1324 1322 1320 1317 1315 1312 1309 1306 1303 1300 1297 1294 1291 1288 1286 1285 1284 1283 1281 1281 1281 1281 1281 1282 1283 1284 1286 1288 1290 1292 1294 1296 1299 1302 1305 1308
1333 1332 1330 1329 1328 1326 1324 1322 1320 1317 1315 1312 1309 1306 1302 1299 1297 1294 1291 1288 1285 1282 1280 1279 1277 1276 1275 1275 1276 1276 1276 1277 1278 1280 1282 1284 1286 1288 1291 1293 1296 1299 1302 1306
1331 1329 1327 1326 1324 1322 1320 1318 1315 1312 1309 1307 1303 1300 1296 1293 1291 1288 1284 1280 1278 1276 1274 1272 1271 1270 1269 1269 1270 1270 1271 1273 1275 1276 1278 1280 1283 1285 1288 1291 1294 1297 1300 1304
1328 1327 1325 1323 1321 1319 1316 1314 1311 1308 1305 1301 1298 1295 1291 1287 1284 1281 1278 1275 1272 1270 1268 1266 1265 1264 1263 1264 1264 1265 1267 1268 1270 1272 1275 1277 1279 1282 1285 1288 1291 1295 1298 1302
1326 1324 1322 1320 1318 1315 1312 1310 1307 1304 1300 1297 1293 1290 1286 1282 1279 1276 1271 1269 1266 1264 1262 1260 1259 1258 1258 1259 1259 1261 1262 1264 1266 1269 1271 1274 1276 1279 1283 1286 1290 1293 1297 1300
1324 1322 1319 1317 1314 1312 1308 1305 1303 1300 1296 1293 1289 1286 1282 1278 1274 1271 1268 1264 1261 1259 1256 1255 1254 1254 1254 1254 1255 1257 1258 1261 1263 1266 1269 1271 1274 1277 1281 1284 1288 1292 1296 1300
1321 1319 1316 1314 1311 1308 1305 1302 1299 1295 1292 1289 1285 1282 1278 1275 1271 1267 1264 1260 1257 1254 1252 1250 1250 1250 1250 1251 1252 1254 1256 1258 1261 1263 1266 1269 1273 1276 1280 1283 1287 1291 1295 1300
1319 1316 1314 1312 1309 1306 1303 1300 1296 1293 1289 1285 1281 1278 1275 1271 1268 1264 1260 1257 1254 1252 1250 1248 1248 1248 1248 1249 1250 1252 1254 1256 1259 1262 1265 1268 1272 1275 1279 1283 1287 1291 1295 1300
1316 1314 1311 1309 1306 1304 1301 1298 1294 1291 1287 1283 1279 1275 1272 1269 1265 1262 1259 1256 1253 1251 1249 1248 1247 1247 1247 1248 1249 1251 1253 1256 1258 1261 1264 1268 1271 1275 1278 1282 1287 1291 1296 1301